Total_Precipitation_Accumulation
1.99 2.10 2.21 1.61 1.33 1.20 1.13 1.13 1.12 1.01 1.00 1.07 1.07 1.09 1.11 1.17 1.20 1.31 1.39 1.42 1.56 1.71 1.81 1.99 2.15 2.22 2.19 2.01 1.80 1.60 1.42 1.41 1.51 1.59 1.65 1.65 1.66 1.91 2.20 2.32 2.16 1.48 1.58
1.59 1.74 1.86 1.46 1.21 1.06 1.00 1.08 1.06 0.97 0.94 0.98 0.96 0.98 1.04 1.13 1.15 1.24 1.33 1.48 1.62 1.70 1.78 1.94 2.02 2.02 1.85 1.58 1.39 1.27 1.23 1.33 1.55 1.72 1.70 1.58 1.72 1.89 2.15 2.17 2.12 1.45 1.53
1.06 1.30 1.30 1.28 1.12 1.00 0.97 0.99 0.97 0.92 0.88 0.95 1.00 1.05 1.12 1.22 1.19 1.16 1.29 1.46 1.58 1.62 1.67 1.78 1.83 1.76 1.55 1.29 1.17 1.10 1.16 1.38 1.66 1.95 2.09 1.44 1.33 1.81 2.12 2.04 1.69 1.35 1.39
0.78 0.93 0.94 1.02 0.96 0.82 0.71 0.75 0.87 0.84 0.87 0.96 1.08 1.20 1.30 1.44 1.44 1.41 1.44 1.48 1.56 1.55 1.56 1.64 1.61 1.47 1.33 1.19 1.07 1.05 1.13 1.44 1.75 2.21 2.11 1.34 1.01 1.44 1.80 1.60 1.41 1.34 1.33
0.68 0.75 0.86 0.80 0.71 0.69 0.63 0.63 0.77 0.88 0.93 0.93 1.04 1.18 1.35 1.61 1.65 1.67 1.70 1.74 1.69 1.57 1.49 1.47 1.43 1.25 1.12 1.03 0.99 1.05 1.16 1.45 1.81 1.93 1.59 1.43 1.32 1.38 1.42 1.37 1.37 1.37 1.35
0.57 0.61 0.64 0.72 0.69 0.65 0.65 0.65 0.71 0.82 0.90 0.94 1.00 1.16 1.36 1.64 1.80 1.88 1.82 1.80 1.71 1.50 1.40 1.33 1.26 1.08 0.97 0.93 1.00 1.07 1.20 1.57 1.59 1.16 1.13 1.14 1.17 1.37 1.31 1.48 1.53 1.47 1.41
0.52 0.59 0.61 0.67 0.68 0.66 0.64 0.71 0.75 0.75 0.86 0.88 0.88 1.02 1.26 1.48 1.77 1.80 1.73 1.65 1.51 1.41 1.36 1.29 1.16 0.99 0.95 0.95 1.04 1.07 1.25 1.55 1.26 0.88 1.08 1.25 1.09 1.12 1.27 1.53 1.68 1.62 1.43
0.61 0.53 0.62 0.70 0.70 0.66 0.61 0.67 0.70 0.71 0.75 0.83 0.87 0.96 1.14 1.31 1.46 1.50 1.46 1.38 1.30 1.32 1.31 1.26 1.14 1.03 0.95 0.96 1.00 1.05 1.24 1.25 0.95 0.86 0.90 0.94 0.89 1.03 1.26 1.45 1.60 1.64 1.44
0.84 0.68 0.65 0.61 0.57 0.59 0.63 0.65 0.68 0.72 0.80 0.87 0.92 1.02 1.19 1.22 1.28 1.25 1.28 1.26 1.26 1.26 1.27 1.16 1.01 0.91 0.85 0.89 0.95 1.05 1.22 1.29 1.07 1.06 0.83 0.83 1.03 1.19 1.39 1.54 1.53 1.47 1.39
1.12 0.94 0.79 0.74 0.73 0.63 0.61 0.73 0.78 0.85 0.95 1.04 1.08 1.18 1.34 1.34 1.30 1.32 1.27 1.26 1.27 1.32 1.28 1.13 0.91 0.80 0.80 0.87 0.92 1.03 1.20 1.06 0.93 0.94 0.88 0.82 1.14 1.31 1.46 1.52 1.51 1.41 1.39
1.56 1.20 1.02 0.91 0.93 0.88 0.75 0.78 0.94 1.02 1.12 1.20 1.36 1.51 1.69 1.68 1.50 1.59 1.48 1.53 1.47 1.48 1.42 1.28 1.12 1.02 0.96 0.94 1.15 1.35 1.13 0.98 1.12 1.15 1.04 1.03 1.20 1.42 1.59 1.59 1.59 1.54 1.48
1.75 1.33 1.21 1.05 0.94 0.93 1.04 1.31 1.39 1.20 1.34 1.59 1.83 1.97 2.21 2.15 2.02 1.69 1.82 1.95 2.01 2.12 1.99 1.84 1.77 1.47 1.23 1.13 1.67 1.92 1.19 1.04 1.12 1.25 1.20 1.20 1.42 1.69 1.84 1.75 1.64 1.58 1.48
1.64 1.42 1.34 1.34 1.32 1.19 1.32 1.52 1.63 1.62 1.79 1.93 2.00 2.11 2.28 1.99 1.90 1.91 2.05 2.28 2.40 2.44 2.28 2.32 2.32 1.99 1.90 1.88 2.10 2.06 1.50 1.38 1.32 1.27 1.34 1.45 1.60 1.89 2.20 2.03 1.81 1.68 1.52
2.10 1.88 1.72 1.73 1.66 1.56 1.52 1.68 1.79 1.80 1.86 2.00 2.10 2.03 2.13 2.25 2.30 2.38 2.58 2.51 2.58 2.70 2.96 2.61 2.72 2.56 2.39 2.29 2.29 2.16 1.83 1.80 1.78 1.76 1.92 1.74 1.69 2.01 2.41 2.34 2.12 1.91 1.74
2.65 2.63 2.36 2.08 1.92 1.88 2.00 2.01 1.93 2.00 2.09 2.17 2.32 2.25 2.22 2.46 2.57 2.62 2.62 2.69 2.49 2.58 2.92 3.01 2.79 2.98 3.05 2.85 2.63 2.39 2.30 2.11 1.98 2.01 2.08 2.02 1.98 2.09 2.40 2.60 2.47 2.30 2.07
2.85 2.93 2.72 2.53 2.38 2.35 2.50 2.58 2.47 2.28 2.46 2.53 2.50 2.34 2.39 2.63 2.90 3.03 2.89 2.94 2.75 2.63 2.80 2.94 2.95 3.54 3.42 3.27 2.77 2.48 2.43 2.36 2.19 2.23 2.28 2.35 2.11 1.97 2.15 2.61 2.78 2.67 2.49
3.21 3.12 3.07 3.03 2.93 2.96 2.95 2.91 2.72 2.65 2.55 2.63 2.69 2.70 2.69 2.71 3.02 3.14 3.20 3.14 2.95 2.81 2.97 2.99 3.20 3.46 3.23 3.09 2.79 2.59 2.49 2.43 2.24 2.23 2.45 2.66 2.38 2.18 2.14 2.34 2.66 2.83 2.88
3.58 3.56 3.54 3.39 3.41 3.43 3.41 3.30 3.12 2.98 2.82 2.67 2.64 2.77 2.80 2.89 3.10 3.27 3.13 3.02 3.13 3.15 3.27 3.45 3.52 3.52 3.41 3.27 3.04 2.69 2.50 2.53 2.08 2.02 2.14 2.30 2.44 2.20 2.35 2.58 2.78 2.80 3.00
4.10 4.26 4.28 4.19 3.98 3.76 3.70 3.68 3.69 3.65 3.41 3.10 2.96 2.94 2.96 2.85 2.98 3.22 3.17 3.21 3.25 3.30 3.34 3.08 3.53 3.50 3.53 3.37 2.80 2.61 2.32 2.30 2.18 1.92 1.95 1.90 2.03 2.07 2.11 2.29 2.54 2.58 2.94
4.39 4.90 4.86 4.68 4.56 4.47 4.37 4.13 4.13 3.89 3.61 3.49 3.39 3.45 3.30 3.15 3.11 3.33 3.27 3.33 3.35 3.43 3.44 3.40 3.64 3.57 3.40 3.31 2.62 2.44 2.22 1.88 1.89 1.88 1.72 1.72 1.81 1.72 1.85 2.13 2.43 2.14 2.51
4.67 5.14 5.37 5.37 5.18 4.89 4.49 4.10 3.93 3.84 3.82 3.68 3.53 3.36 3.25 3.17 3.25 3.56 3.43 3.67 3.58 3.35 3.28 3.37 3.60 3.46 3.19 3.23 3.18 2.67 2.09 1.74 1.77 1.63 1.70 1.88 1.77 1.77 1.98 2.31 2.44 2.31 2.08
4.26 4.70 4.86 4.62 4.51 4.34 4.08 3.98 3.96 4.17 3.90 3.66 3.55 3.39 3.13 3.08 3.19 3.21 3.49 3.38 3.37 3.43 3.32 3.32 3.53 3.34 2.92 3.04 3.27 3.19 2.49 2.23 1.79 1.35 1.62 1.77 1.83 2.03 2.12 2.13 2.45 2.64 2.41
3.20 3.49 3.65 3.82 3.77 3.65 3.63 3.60 3.63 3.87 3.68 3.52 3.43 3.34 2.98 2.82 2.80 2.91 2.99 3.07 3.37 3.30 3.31 3.37 3.31 3.20 2.89 2.83 2.96 3.19 2.74 2.33 1.88 1.40 1.36 1.63 1.98 2.15 2.11 2.22 2.29 2.50 2.60
2.82 3.02 3.09 3.13 3.27 3.31 3.37 3.28 3.11 3.04 2.99 2.96 3.05 3.01 2.95 2.81 2.70 2.71 2.74 2.79 2.86 2.79 2.93 2.69 2.81 3.01 3.11 2.85 2.91 2.82 2.70 2.54 2.39 1.93 1.61 1.62 1.89 2.03 2.18 2.15 2.23 2.35 2.64
2.22 2.46 2.62 2.75 2.85 2.98 3.03 2.96 2.94 2.74 2.73 2.79 2.85 2.88 2.85 2.81 2.77 2.72 2.68 2.66 2.56 2.43 2.54 2.55 2.74 2.74 2.76 2.73 2.80 2.83 2.85 2.79 2.57 2.44 2.18 2.08 2.01 1.78 1.84 1.97 2.13 2.25 2.47
1.96 2.13 2.28 2.44 2.50 2.62 2.67 2.72 2.71 2.66 2.65 2.67 2.68 2.68 2.67 2.68 2.58 2.51 2.46 2.47 2.37 2.33 2.40 2.48 2.58 2.53 2.56 2.69 2.71 2.72 2.82 2.79 2.80 2.81 2.41 2.24 2.09 1.67 1.65 1.65 1.82 2.00 2.33